,,PA_Meas_PMT16A,,PR_Meas_QMR101_102,,RH_Meas_QMH101,,SR_Meas_QMS101,,TA_Meas_QMH101,,GenWind,,GenWind,
time,status,PA,status,PR,status,RH,status,SR,status,TA,status,DirAvg,status,SpdAvg,
2010-09-12, 00:00:05,VALID,918.965,VALID,0,VALID,89.0491,VALID,0,VALID,17.7157,VALID,129,VALID,1.33711,
2010-09-12, 00:01:05,VALID,918.998,VALID,0,VALID,89.3388,VALID,0,VALID,17.7157,VALID,127,VALID,1.51406,
2010-09-12, 00:02:05,VALID,918.977,VALID,0,VALID,89.4227,VALID,0,VALID,17.6767,VALID,127,VALID,1.51484,
2010-09-12, 00:03:05,VALID,918.987,VALID,0,VALID,89.4608,VALID,0,VALID,17.6767,VALID,127,VALID,1.7168,
2010-09-12, 00:04:05,VALID,918.986,VALID,0,VALID,89.4455,VALID,0,VALID,17.6767,VALID,127,VALID,1.38789,
2010-09-12, 00:05:05,VALID,918.985,VALID,0,VALID,89.3769,VALID,0,VALID,17.6377,VALID,127,VALID,1.00898,
2010-09-12, 00:06:05,VALID,918.963,VALID,0,VALID,89.2931,VALID,0,VALID,17.6182,VALID,127,VALID,1.42383,
2010-09-12, 00:07:05,VALID,918.969,VALID,0,VALID,88.8357,VALID,0,VALID,17.6377,VALID,127,VALID,1.34336,
2010-09-12, 00:08:05,VALID,918.975,VALID,0,VALID,89.1254,VALID,0,VALID,17.6182,VALID,127,VALID,1.35781,
2010-09-12, 00:09:05,VALID,918.983,VALID,0,VALID,89.1406,VALID,0,VALID,17.6182,VALID,127,VALID,1.15195,
2010-09-12, 00:10:05,VALID,918.996,VALID,0,VALID,89.0339,VALID,0,VALID,17.5987,VALID,127,VALID,1.375,
2010-09-12, 00:11:05,VALID,918.982,VALID,0,VALID,88.889,VALID,0,VALID,17.5792,VALID,127,VALID,1.22383,
2010-09-12, 00:12:05,VALID,918.975,VALID,0,VALID,88.5612,VALID,0,VALID,17.5987,VALID,127,VALID,1.49375,
2010-09-12, 00:13:05,VALID,918.94,VALID,0,VALID,88.6222,VALID,0,VALID,17.5792,VALID,127,VALID,1.34922,
2010-09-12, 00:14:05,VALID,918.948,VALID,0,VALID,88.5536,VALID,0,VALID,17.5987,VALID,127,VALID,1.58516,
2010-09-12, 00:15:05,VALID,918.904,VALID,0,VALID,88.2334,VALID,0,VALID,17.6391,VALID,127,VALID,1.5918,
2010-09-12, 00:16:05,VALID,918.903,VALID,0,VALID,88.1114,VALID,0,VALID,17.6572,VALID,127,VALID,1.33828,
2010-09-12, 00:17:05,VALID,918.887,VALID,0,VALID,87.8599,VALID,0,VALID,17.6572,VALID,127,VALID,1.53789,
2010-09-12, 00:18:05,VALID,918.902,VALID,0,VALID,87.6845,VALID,0,VALID,17.6962,VALID,127,VALID,1.39805,
2010-09-12, 00:19:05,VALID,918.926,VALID,0,VALID,87.5016,VALID,0,VALID,17.7157,VALID,127,VALID,1.69453,
2010-09-12, 00:20:05,VALID,918.882,VALID,0,VALID,87.3339,VALID,0,VALID,17.7547,VALID,127,VALID,1.47344,
2010-09-12, 00:21:05,VALID,918.892,VALID,0,VALID,87.4482,VALID,0,VALID,17.7352,VALID,127,VALID,1.34063,
2010-09-12, 00:22:05,VALID,918.893,VALID,0,VALID,87.2576,VALID,0,VALID,17.7352,VALID,127,VALID,1.67227,
2010-09-12, 00:23:05,VALID,918.887,VALID,0,VALID,87.2652,VALID,0,VALID,17.7157,VALID,130,VALID,1.84063,
2010-09-12, 00:24:05,VALID,918.852,VALID,0,VALID,86.8536,VALID,0,VALID,17.7741,VALID,131,VALID,1.28828,
2010-09-12, 00:25:05,VALID,918.836,VALID,0,VALID,86.9756,VALID,0,VALID,17.7936,VALID,131,VALID,1.55664,
2010-09-12, 00:26:05,VALID,918.83,VALID,0,VALID,86.8688,VALID,0,VALID,17.7728,VALID,131,VALID,1.86094,
2010-09-12, 00:27:05,VALID,918.819,VALID,0,VALID,86.8841,VALID,0,VALID,17.7143,VALID,128,VALID,1.10625,
2010-09-12, 00:28:05,VALID,918.779,VALID,0,VALID,87.0289,VALID,0,VALID,17.6559,VALID,128,VALID,1.58633,
2010-09-12, 00:29:05,VALID,918.792,VALID,0,VALID,87.0747,VALID,0.107441,VALID,17.6754,VALID,128,VALID,1.82031,
2010-09-12, 00:30:05,VALID,918.808,VALID,0,VALID,87.1738,VALID,0,VALID,17.6364,VALID,128,VALID,1.425,
2010-09-12, 00:31:05,VALID,918.791,VALID,0,VALID,87.311,VALID,0,VALID,17.6364,VALID,143,VALID,1.46797,
2010-09-12, 00:32:05,VALID,918.78,VALID,0,VALID,87.4482,VALID,0.107441,VALID,17.6156,VALID,143,VALID,1.57422,
2010-09-12, 00:33:05,VALID,918.767,VALID,0,VALID,87.5016,VALID,0.107441,VALID,17.5571,VALID,132,VALID,1.46914,
2010-09-12, 00:34:05,VALID,918.783,VALID,0,VALID,87.7684,VALID,0,VALID,17.4986,VALID,139,VALID,1.38281,
2010-09-12, 00:35:05,VALID,918.758,VALID,0,VALID,87.9056,VALID,0.107441,VALID,17.5,VALID,130,VALID,1.33633,
2010-09-12, 00:36:05,VALID,918.736,VALID,0,VALID,88.2868,VALID,0,VALID,17.4415,VALID,132,VALID,1.38203,
2010-09-12, 00:37:05,VALID,918.731,VALID,0,VALID,88.1877,VALID,0,VALID,17.4415,VALID,124,VALID,1.00977,
2010-09-12, 00:38:05,VALID,918.716,VALID,0,VALID,88.5536,VALID,0,VALID,17.4012,VALID,132,VALID,1.25039,
2010-09-12, 00:39:05,VALID,918.736,VALID,0,VALID,88.3478,VALID,0,VALID,17.4025,VALID,136,VALID,0.864453,
2010-09-12, 00:40:05,VALID,918.701,VALID,0,VALID,88.6146,VALID,0,VALID,17.383,VALID,135,VALID,1.21523,
2010-09-12, 00:41:05,VALID,918.702,VALID,0,VALID,88.7137,VALID,0,VALID,17.383,VALID,138,VALID,1.35,
2010-09-12, 00:42:05,VALID,918.699,VALID,0,VALID,89.0644,VALID,0.107441,VALID,17.3427,VALID,144,VALID,1.07344,
2010-09-12, 00:43:05,VALID,918.669,VALID,0,VALID,88.3097,VALID,0.107441,VALID,17.3635,VALID,144,VALID,1.325,
2010-09-12, 00:44:05,VALID,918.635,VALID,0,VALID,88.0352,VALID,0,VALID,17.383,VALID,144,VALID,1.19687,
2010-09-12, 00:45:05,VALID,918.623,VALID,0,VALID,87.5092,VALID,0.107441,VALID,17.4597,VALID,146,VALID,1.54883,
2010-09-12, 00:46:05,VALID,918.617,VALID,0,VALID,87.2043,VALID,0,VALID,17.5,VALID,121,VALID,1.48906,
2010-09-12, 00:47:05,VALID,918.61,VALID,0,VALID,86.846,VALID,0,VALID,17.5389,VALID,135,VALID,1.38047,
2010-09-12, 00:48:05,VALID,918.597,VALID,0,VALID,86.6096,VALID,0,VALID,17.6169,VALID,146,VALID,1.30664,
2010-09-12, 00:49:05,VALID,918.617,VALID,0,VALID,86.2894,VALID,0,VALID,17.6364,VALID,156,VALID,1.11484,
2010-09-12, 00:50:05,VALID,918.608,VALID,0,VALID,85.9235,VALID,0,VALID,17.6948,VALID,150,VALID,0.722266,
2010-09-12, 00:51:05,VALID,918.651,VALID,0,VALID,86.4267,VALID,0,VALID,17.6754,VALID,151,VALID,1.37422,
2010-09-12, 00:52:05,VALID,918.636,VALID,0,VALID,86.5182,VALID,0.107441,VALID,17.6545,VALID,170,VALID,0.651563,
2010-09-12, 00:53:05,VALID,918.615,VALID,0,VALID,86.663,VALID,0,VALID,17.6559,VALID,149,VALID,1.21367,
2010-09-12, 00:54:05,VALID,918.628,VALID,0,VALID,87.0899,VALID,0,VALID,17.6364,VALID,146,VALID,0.682031,
2010-09-12, 00:55:05,VALID,918.603,VALID,0,VALID,87.3186,VALID,0.107441,VALID,17.5766,VALID,124,VALID,0.671484,
2010-09-12, 00:56:05,VALID,918.587,VALID,0,VALID,87.7913,VALID,0,VALID,17.5194,VALID,134,VALID,1.35664,
2010-09-12, 00:57:05,VALID,918.585,VALID,0,VALID,87.7989,VALID,0,VALID,17.4805,VALID,135,VALID,0.598047,
2010-09-12, 00:58:05,VALID,918.583,VALID,0,VALID,88.0428,VALID,0,VALID,17.4025,VALID,135,VALID,0.678125,
2010-09-12, 00:59:05,VALID,918.589,VALID,0,VALID,88.1648,VALID,0,VALID,17.383,VALID,135,VALID,0.537891,
2010-09-12, 01:00:05,VALID,918.58,VALID,0,VALID,88.2639,VALID,0,VALID,17.3635,VALID,135,VALID,0.882422,
2010-09-12, 01:01:05,VALID,918.555,VALID,0,VALID,88.2715,VALID,0,VALID,17.383,VALID,135,VALID,1.05898,
2010-09-12, 01:02:05,VALID,918.547,VALID,0,VALID,88.2182,VALID,0.107441,VALID,17.4025,VALID,135,VALID,0.842969,
2010-09-12, 01:03:05,VALID,918.538,VALID,0,VALID,88.0047,VALID,0,VALID,17.4025,VALID,126,VALID,0.883984,
2010-09-12, 01:04:05,VALID,918.515,VALID,0,VALID,88.0276,VALID,0.107441,VALID,17.383,VALID,126,VALID,1.10859,
2010-09-12, 01:05:05,VALID,918.501,VALID,0,VALID,87.8218,VALID,0,VALID,17.383,VALID,126,VALID,1.00469,
2010-09-12, 01:06:05,VALID,918.515,VALID,0,VALID,87.8065,VALID,0,VALID,17.3635,VALID,126,VALID,1.01445,
2010-09-12, 01:07:05,VALID,918.53,VALID,0,VALID,87.3567,VALID,0,VALID,17.422,VALID,126,VALID,0.807031,
2010-09-12, 01:08:05,VALID,918.522,VALID,0,VALID,87.3262,VALID,0,VALID,17.4415,VALID,126,VALID,1.03906,
2010-09-12, 01:09:05,VALID,918.546,VALID,0,VALID,87.2043,VALID,0,VALID,17.4805,VALID,126,VALID,1.03437,
2010-09-12, 01:10:05,VALID,918.539,VALID,0,VALID,87.0213,VALID,0,VALID,17.5,VALID,126,VALID,1.17852,
2010-09-12, 01:11:05,VALID,918.537,VALID,0,VALID,87.0213,VALID,0,VALID,17.4818,VALID,112,VALID,1.66758,
2010-09-12, 01:12:05,VALID,918.523,VALID,0,VALID,87.4787,VALID,0,VALID,17.4623,VALID,124,VALID,1.36211,
2010-09-12, 01:13:05,VALID,918.562,VALID,0,VALID,87.4558,VALID,0,VALID,17.4623,VALID,124,VALID,1.52734,
2010-09-12, 01:14:05,VALID,918.534,VALID,0,VALID,87.3643,VALID,0,VALID,17.4623,VALID,124,VALID,1.34961,
2010-09-12, 01:15:05,VALID,918.54,VALID,0,VALID,87.5168,VALID,0,VALID,17.4428,VALID,124,VALID,1.06875,
2010-09-12, 01:16:05,VALID,918.537,VALID,0,VALID,87.5397,VALID,0,VALID,17.4428,VALID,124,VALID,1.30078,
2010-09-12, 01:17:04,VALID,918.525,VALID,0,VALID,87.4711,VALID,0,VALID,17.4623,VALID,125,VALID,1.35273,
2010-09-12, 01:18:04,VALID,918.486,VALID,0,VALID,87.4253,VALID,0,VALID,17.4233,VALID,139,VALID,1.11445,
2010-09-12, 01:19:04,VALID,918.512,VALID,0,VALID,87.4711,VALID,0,VALID,17.4233,VALID,131,VALID,1.43203,
2010-09-12, 01:20:04,VALID,918.479,VALID,0,VALID,87.3796,VALID,0,VALID,17.4233,VALID,126,VALID,1.14531,
2010-09-12, 01:21:04,VALID,918.486,VALID,0,VALID,86.8764,VALID,0,VALID,17.4818,VALID,128,VALID,1.33594,
2010-09-12, 01:22:04,VALID,918.474,VALID,0,VALID,86.4419,VALID,0,VALID,17.4818,VALID,111,VALID,1.49609,
2010-09-12, 01:23:04,VALID,918.442,VALID,0,VALID,86.6249,VALID,0,VALID,17.4428,VALID,117,VALID,0.940234,
2010-09-12, 01:24:04,VALID,918.448,VALID,0,VALID,86.8688,VALID,0,VALID,17.4038,VALID,116,VALID,1.20469,
2010-09-12, 01:25:04,VALID,918.441,VALID,0,VALID,86.8764,VALID,0,VALID,17.3844,VALID,116,VALID,1.44844,
2010-09-12, 01:26:04,VALID,918.454,VALID,0,VALID,86.5486,VALID,0,VALID,17.383,VALID,122,VALID,1.29883,
2010-09-12, 01:27:04,VALID,918.48,VALID,0,VALID,86.3733,VALID,0,VALID,17.4025,VALID,107,VALID,1.18125,
2010-09-12, 01:28:04,VALID,918.463,VALID,0,VALID,86.3733,VALID,0,VALID,17.383,VALID,108,VALID,1.62031,
2010-09-12, 01:29:04,VALID,918.436,VALID,0,VALID,86.9146,VALID,0,VALID,17.3246,VALID,114,VALID,1.15,
2010-09-12, 01:30:04,VALID,918.461,VALID,0,VALID,87.1433,VALID,0.107441,VALID,17.2466,VALID,114,VALID,1.29727,
2010-09-12, 01:31:04,VALID,918.458,VALID,0,VALID,88.302,VALID,0,VALID,17.1492,VALID,114,VALID,1.37578,
2010-09-12, 01:32:04,VALID,918.446,VALID,0,VALID,88.4469,VALID,0,VALID,17.1297,VALID,114,VALID,1.19336,
2010-09-12, 01:33:04,VALID,918.421,VALID,0,VALID,88.2944,VALID,0,VALID,17.1102,VALID,114,VALID,1.13672,
2010-09-12, 01:34:04,VALID,918.399,VALID,0,VALID,88.3401,VALID,0,VALID,17.1102,VALID,114,VALID,1.29336,
2010-09-12, 01:35:04,VALID,918.386,VALID,0,VALID,88.2334,VALID,0.107441,VALID,17.1492,VALID,114,VALID,1.10234,
2010-09-12, 01:36:04,VALID,918.39,VALID,0,VALID,88.2182,VALID,0,VALID,17.1492,VALID,114,VALID,1.08672,
2010-09-12, 01:37:04,VALID,918.367,VALID,0,VALID,88.2563,VALID,0,VALID,17.1492,VALID,114,VALID,1.01055,
2010-09-12, 01:38:04,VALID,918.341,VALID,0,VALID,88.3325,VALID,0,VALID,17.1505,VALID,114,VALID,0.975391,
2010-09-12, 01:39:04,VALID,918.332,VALID,0,VALID,88.5384,VALID,0.107441,VALID,17.1102,VALID,114,VALID,1.16758,
2010-09-12, 01:40:04,VALID,918.336,VALID,0,VALID,88.7975,VALID,0.107441,VALID,17.0907,VALID,114,VALID,1.1375,
2010-09-12, 01:41:04,VALID,918.298,VALID,0,VALID,88.9043,VALID,0,VALID,17.0726,VALID,114,VALID,1.23867,
2010-09-12, 01:42:04,VALID,918.277,VALID,0,VALID,89.0491,VALID,0,VALID,17.0323,VALID,114,VALID,1.28437,
2010-09-12, 01:43:04,VALID,918.27,VALID,0,VALID,89.0263,VALID,0,VALID,17.0531,VALID,114,VALID,1.23906,
2010-09-12, 01:44:04,VALID,918.261,VALID,0,VALID,88.9729,VALID,0,VALID,17.0726,VALID,114,VALID,1.20469,
2010-09-12, 01:45:04,VALID,918.232,VALID,0,VALID,88.95,VALID,0,VALID,17.0726,VALID,114,VALID,1.25391,
2010-09-12, 01:46:04,VALID,918.238,VALID,0,VALID,88.7671,VALID,0,VALID,17.1115,VALID,132,VALID,1.34531,
2010-09-12, 01:47:04,VALID,918.235,VALID,0,VALID,87.837,VALID,0,VALID,17.1115,VALID,132,VALID,0.934375,
2010-09-12, 01:48:04,VALID,918.22,VALID,0,VALID,88.9653,VALID,0,VALID,17.0141,VALID,100,VALID,0.987109,
2010-09-12, 01:49:04,VALID,918.245,VALID,0,VALID,89.5599,VALID,0,VALID,16.9556,VALID,100,VALID,1.05586,
2010-09-12, 01:50:04,VALID,918.257,VALID,0,VALID,89.2931,VALID,0,VALID,17.0141,VALID,100,VALID,1.13477,
2010-09-12, 01:51:04,VALID,918.224,VALID,0,VALID,88.8204,VALID,0,VALID,17.0726,VALID,100,VALID,1.34766,
2010-09-12, 01:52:04,VALID,918.219,VALID,0,VALID,88.3783,VALID,0,VALID,17.131,VALID,101,VALID,1.19922,
2010-09-12, 01:53:04,VALID,918.225,VALID,0,VALID,88.1801,VALID,0,VALID,17.131,VALID,131,VALID,0.972656,
2010-09-12, 01:54:04,VALID,918.195,VALID,0,VALID,88.302,VALID,0,VALID,17.131,VALID,131,VALID,0.935547,
2010-09-12, 01:55:04,VALID,918.183,VALID,0,VALID,88.3249,VALID,0,VALID,17.131,VALID,131,VALID,0.834766,
2010-09-12, 01:56:04,VALID,918.182,VALID,0,VALID,88.3401,VALID,0,VALID,17.1102,VALID,131,VALID,0.817969,
2010-09-12, 01:57:04,VALID,918.192,VALID,0,VALID,88.3554,VALID,0,VALID,17.0713,VALID,131,VALID,0.915625,
2010-09-12, 01:58:04,VALID,918.168,VALID,0,VALID,88.2563,VALID,0,VALID,17.1115,VALID,131,VALID,1.11758,
2010-09-12, 01:59:04,VALID,918.183,VALID,0,VALID,88.1953,VALID,0.107441,VALID,17.0713,VALID,131,VALID,0.846875,
2010-09-12, 02:00:04,VALID,918.186,VALID,0,VALID,88.424,VALID,0.107441,VALID,17.0518,VALID,131,VALID,0.861719,
2010-09-12, 02:01:04,VALID,918.191,VALID,0,VALID,88.5917,VALID,0,VALID,17.0531,VALID,131,VALID,1.01367,
2010-09-12, 02:02:04,VALID,918.214,VALID,0,VALID,88.5536,VALID,0,VALID,17.0128,VALID,131,VALID,1.10664,
2010-09-12, 02:03:04,VALID,918.255,VALID,0,VALID,88.7289,VALID,0,VALID,17.0323,VALID,131,VALID,1.20078,
2010-09-12, 02:04:04,VALID,918.24,VALID,0,VALID,88.6451,VALID,0,VALID,17.0323,VALID,131,VALID,0.99375,
2010-09-12, 02:05:04,VALID,918.257,VALID,0,VALID,88.8204,VALID,0,VALID,17.0128,VALID,131,VALID,1.1832,
2010-09-12, 02:06:04,VALID,918.258,VALID,0,VALID,88.7975,VALID,0,VALID,17.0518,VALID,131,VALID,1.2207,
2010-09-12, 02:07:04,VALID,918.235,VALID,0,VALID,88.5231,VALID,0,VALID,17.0323,VALID,131,VALID,1.08086,
2010-09-12, 02:08:04,VALID,918.239,VALID,0,VALID,88.6756,VALID,0,VALID,17.0323,VALID,131,VALID,0.991406,
2010-09-12, 02:09:04,VALID,918.18,VALID,0,VALID,88.8662,VALID,0,VALID,17.0323,VALID,131,VALID,0.932422,
2010-09-12, 02:10:04,VALID,918.202,VALID,0,VALID,88.6756,VALID,0,VALID,17.0907,VALID,131,VALID,1.18555,
2010-09-12, 02:11:04,VALID,918.186,VALID,0,VALID,88.4316,VALID,0,VALID,17.1102,VALID,131,VALID,1.26875,
2010-09-12, 02:12:04,VALID,918.149,VALID,0,VALID,88.302,VALID,0,VALID,17.1492,VALID,131,VALID,1.23672,
2010-09-12, 02:13:04,VALID,918.098,VALID,0,VALID,88.2105,VALID,0,VALID,17.1882,VALID,131,VALID,1.35312,
2010-09-12, 02:14:04,VALID,918.081,VALID,0,VALID,88.1343,VALID,0,VALID,17.1882,VALID,131,VALID,1.37422,
2010-09-12, 02:15:04,VALID,918.073,VALID,0,VALID,88.0123,VALID,0,VALID,17.2271,VALID,131,VALID,1.10977,
2010-09-12, 02:16:04,VALID,918.084,VALID,0,VALID,87.898,VALID,0,VALID,17.2466,VALID,131,VALID,1.25586,
2010-09-12, 02:17:04,VALID,918.049,VALID,0,VALID,87.8904,VALID,0,VALID,17.2271,VALID,130,VALID,1.20078,
2010-09-12, 02:18:04,VALID,918.052,VALID,0,VALID,87.9285,VALID,0,VALID,17.2271,VALID,130,VALID,1.06484,
2010-09-12, 02:19:04,VALID,918.034,VALID,0,VALID,88.0581,VALID,0,VALID,17.2271,VALID,128,VALID,1.13047,
2010-09-12, 02:20:04,VALID,918.011,VALID,0,VALID,88.0276,VALID,0,VALID,17.1882,VALID,128,VALID,0.734766,
2010-09-12, 02:21:04,VALID,917.974,VALID,0,VALID,88.0581,VALID,0.107441,VALID,17.1492,VALID,128,VALID,1.15781,
2010-09-12, 02:22:04,VALID,917.974,VALID,0,VALID,88.02,VALID,0,VALID,17.1687,VALID,128,VALID,1.14414,
2010-09-12, 02:23:04,VALID,917.95,VALID,0,VALID,87.7608,VALID,0,VALID,17.2077,VALID,127,VALID,1.21445,
2010-09-12, 02:24:04,VALID,917.942,VALID,0,VALID,87.4711,VALID,0,VALID,17.2466,VALID,127,VALID,1.07773,
2010-09-12, 02:25:04,VALID,917.929,VALID,0,VALID,87.4711,VALID,0.107441,VALID,17.2077,VALID,126,VALID,1.15703,
2010-09-12, 02:26:04,VALID,917.873,VALID,0,VALID,87.5702,VALID,0,VALID,17.2077,VALID,122,VALID,1.64297,
2010-09-12, 02:27:04,VALID,917.871,VALID,0,VALID,87.3262,VALID,0,VALID,17.2466,VALID,120,VALID,1.34648,
2010-09-12, 02:28:04,VALID,917.853,VALID,0,VALID,87.0594,VALID,0,VALID,17.2077,VALID,119,VALID,1.07656,
2010-09-12, 02:29:04,VALID,917.819,VALID,0,VALID,87.5244,VALID,0,VALID,17.1687,VALID,119,VALID,1.21875,
2010-09-12, 02:30:04,VALID,917.813,VALID,0,VALID,87.6159,VALID,0,VALID,17.1492,VALID,119,VALID,1.39141,
2010-09-12, 02:31:04,VALID,917.788,VALID,0,VALID,87.5397,VALID,0,VALID,17.1687,VALID,119,VALID,1.43633,
2010-09-12, 02:32:04,VALID,917.768,VALID,0,VALID,87.593,VALID,0,VALID,17.1492,VALID,119,VALID,1.53789,
2010-09-12, 02:33:04,VALID,917.737,VALID,0,VALID,87.7684,VALID,0,VALID,17.1102,VALID,119,VALID,1.39531,
2010-09-12, 02:34:04,VALID,917.718,VALID,0,VALID,87.9437,VALID,0,VALID,17.0518,VALID,119,VALID,1.39609,
2010-09-12, 02:35:04,VALID,917.735,VALID,0,VALID,88.1038,VALID,0,VALID,17.0323,VALID,119,VALID,1.27695,
2010-09-12, 02:36:04,VALID,917.725,VALID,0,VALID,88.2487,VALID,0.107441,VALID,17.0128,VALID,119,VALID,1.13477,
2010-09-12, 02:37:04,VALID,917.736,VALID,0,VALID,88.3706,VALID,0,VALID,16.9933,VALID,119,VALID,0.926562,
2010-09-12, 02:38:04,VALID,917.721,VALID,0,VALID,88.3554,VALID,0,VALID,16.9933,VALID,119,VALID,0.748438,
2010-09-12, 02:39:04,VALID,917.711,VALID,0,VALID,88.2868,VALID,0,VALID,16.9933,VALID,119,VALID,1.2625,
2010-09-12, 02:40:04,VALID,917.666,VALID,0,VALID,87.959,VALID,0,VALID,17.0128,VALID,119,VALID,1.41133,
2010-09-12, 02:41:04,VALID,917.647,VALID,0,VALID,87.5854,VALID,0,VALID,17.0713,VALID,119,VALID,1.60742,
2010-09-12, 02:42:04,VALID,917.64,VALID,0,VALID,87.2424,VALID,0,VALID,17.1492,VALID,119,VALID,1.36719,
2010-09-12, 02:43:04,VALID,917.639,VALID,0,VALID,86.8764,VALID,0,VALID,17.2271,VALID,119,VALID,1.53516,
2010-09-12, 02:44:04,VALID,917.623,VALID,0,VALID,86.663,VALID,0,VALID,17.2466,VALID,119,VALID,1.20938,
2010-09-12, 02:45:04,VALID,917.637,VALID,0,VALID,86.6172,VALID,0,VALID,17.2661,VALID,119,VALID,1.18047,
2010-09-12, 02:46:04,VALID,917.609,VALID,0,VALID,86.5944,VALID,0,VALID,17.2856,VALID,119,VALID,1.27891,
2010-09-12, 02:47:04,VALID,917.596,VALID,0,VALID,86.4953,VALID,0,VALID,17.2661,VALID,119,VALID,1.05313,
2010-09-12, 02:48:04,VALID,917.543,VALID,0,VALID,86.4572,VALID,0,VALID,17.2661,VALID,119,VALID,0.917578,
2010-09-12, 02:49:04,VALID,917.523,VALID,0,VALID,86.5868,VALID,0,VALID,17.2661,VALID,119,VALID,0.775781,
2010-09-12, 02:50:04,VALID,917.54,VALID,0,VALID,86.7011,VALID,0,VALID,17.2466,VALID,119,VALID,0.710547,
2010-09-12, 02:51:04,VALID,917.508,VALID,0,VALID,86.5868,VALID,0,VALID,17.2466,VALID,119,VALID,0.815625,
2010-09-12, 02:52:04,VALID,917.499,VALID,0,VALID,86.6325,VALID,0.107441,VALID,17.2466,VALID,119,VALID,0.592578,
2010-09-12, 02:53:04,VALID,917.504,VALID,0,VALID,86.6935,VALID,0,VALID,17.2077,VALID,119,VALID,0.583984,
2010-09-12, 02:54:04,VALID,917.471,VALID,0,VALID,86.724,VALID,0,VALID,17.2285,VALID,119,VALID,1.21836,
2010-09-12, 02:55:04,VALID,917.471,VALID,0,VALID,86.7164,VALID,0,VALID,17.2077,VALID,119,VALID,1.30469,
2010-09-12, 02:56:04,VALID,917.454,VALID,0,VALID,86.9679,VALID,0,VALID,17.1297,VALID,119,VALID,1.3957,
2010-09-12, 02:57:04,VALID,917.391,VALID,0,VALID,86.9146,VALID,0,VALID,17.1492,VALID,119,VALID,1.48633,
2010-09-12, 02:58:04,VALID,917.358,VALID,0,VALID,86.9374,VALID,0,VALID,17.1492,VALID,119,VALID,1.40313,
2010-09-12, 02:59:04,VALID,917.318,VALID,0,VALID,86.8917,VALID,0,VALID,17.1492,VALID,119,VALID,1.10898,
2010-09-12, 03:00:04,VALID,917.295,VALID,0,VALID,87.0289,VALID,0.107441,VALID,17.1297,VALID,119,VALID,0.920703,
2010-09-12, 03:01:04,VALID,917.278,VALID,0,VALID,87.2652,VALID,0,VALID,17.0907,VALID,115,VALID,1.29102,
2010-09-12, 03:02:04,VALID,917.231,VALID,0,VALID,87.0594,VALID,0,VALID,17.1102,VALID,115,VALID,1.30117,
2010-09-12, 03:03:04,VALID,917.228,VALID,0,VALID,86.8002,VALID,0,VALID,17.1492,VALID,115,VALID,1.40352,
2010-09-12, 03:04:04,VALID,917.209,VALID,0,VALID,86.3809,VALID,0,VALID,17.2479,VALID,115,VALID,1.46523,
2010-09-12, 03:05:04,VALID,917.186,VALID,0,VALID,86.1446,VALID,0,VALID,17.2856,VALID,115,VALID,1.32852,
2010-09-12, 03:06:04,VALID,917.174,VALID,0,VALID,85.7939,VALID,0,VALID,17.3246,VALID,115,VALID,1.32383,
2010-09-12, 03:07:04,VALID,917.151,VALID,0,VALID,85.5347,VALID,0,VALID,17.3441,VALID,115,VALID,1.15117,
2010-09-12, 03:08:04,VALID,917.133,VALID,0,VALID,85.4509,VALID,0,VALID,17.383,VALID,115,VALID,0.892187,
2010-09-12, 03:09:04,VALID,917.134,VALID,0,VALID,85.4737,VALID,0,VALID,17.383,VALID,115,VALID,1.27773,
2010-09-12, 03:10:04,VALID,917.183,VALID,0,VALID,86.3657,VALID,0,VALID,17.383,VALID,115,VALID,1.32031,
2010-09-12, 03:11:04,VALID,917.149,VALID,0,VALID,87.0289,VALID,0,VALID,17.2661,VALID,115,VALID,1.28555,
2010-09-12, 03:12:04,VALID,917.177,VALID,0,VALID,87.0899,VALID,0,VALID,17.1297,VALID,115,VALID,1.25547,
2010-09-12, 03:13:04,VALID,917.211,VALID,0,VALID,87.0365,VALID,0,VALID,17.0713,VALID,115,VALID,1.29961,
2010-09-12, 03:14:04,VALID,917.218,VALID,0,VALID,87.2271,VALID,0,VALID,17.0128,VALID,115,VALID,1.41211,
2010-09-12, 03:15:04,VALID,917.228,VALID,0,VALID,87.2805,VALID,0,VALID,17.0128,VALID,115,VALID,1.47812,
2010-09-12, 03:16:04,VALID,917.207,VALID,0,VALID,87.5397,VALID,0,VALID,16.9738,VALID,112,VALID,1.39492,
2010-09-12, 03:17:04,VALID,917.198,VALID,0,VALID,87.7913,VALID,0,VALID,16.9543,VALID,112,VALID,1.175,
2010-09-12, 03:18:04,VALID,917.192,VALID,0,VALID,87.9513,VALID,0,VALID,16.9349,VALID,112,VALID,1.15898,
2010-09-12, 03:19:04,VALID,917.218,VALID,0,VALID,88.1114,VALID,0,VALID,16.9154,VALID,112,VALID,1.18438,
2010-09-12, 03:20:04,VALID,917.242,VALID,0,VALID,88.4011,VALID,0,VALID,16.8764,VALID,112,VALID,0.994531,
2010-09-12, 03:21:04,VALID,917.222,VALID,0,VALID,88.4774,VALID,0,VALID,16.8192,VALID,112,VALID,0.924219,
2010-09-12, 03:22:04,VALID,917.208,VALID,0,VALID,88.2715,VALID,0,VALID,16.7998,VALID,112,VALID,1.27578,
2010-09-12, 03:23:04,VALID,917.199,VALID,0,VALID,88.3783,VALID,0,VALID,16.7595,VALID,112,VALID,1.23203,
2010-09-12, 03:24:04,VALID,917.191,VALID,0,VALID,88.3478,VALID,0,VALID,16.7205,VALID,111,VALID,1.03984,
2010-09-12, 03:25:04,VALID,917.164,VALID,0,VALID,88.241,VALID,0,VALID,16.7218,VALID,111,VALID,1.33047,
2010-09-12, 03:26:04,VALID,917.168,VALID,0,VALID,88.0123,VALID,0,VALID,16.7413,VALID,111,VALID,1.20508,
2010-09-12, 03:27:04,VALID,917.195,VALID,0,VALID,87.9895,VALID,0,VALID,16.7011,VALID,111,VALID,0.959375,
2010-09-12, 03:28:04,VALID,917.173,VALID,0,VALID,87.9742,VALID,0,VALID,16.6816,VALID,111,VALID,1.28789,
2010-09-12, 03:29:04,VALID,917.165,VALID,0,VALID,87.5702,VALID,0,VALID,16.7011,VALID,111,VALID,1.22383,
2010-09-12, 03:30:04,VALID,917.162,VALID,0,VALID,87.2119,VALID,0,VALID,16.74,VALID,111,VALID,1.24375,
2010-09-12, 03:31:04,VALID,917.139,VALID,0,VALID,87.1433,VALID,0,VALID,16.779,VALID,111,VALID,1.34258,
2010-09-12, 03:32:04,VALID,917.132,VALID,0,VALID,87.067,VALID,0,VALID,16.7985,VALID,111,VALID,1.23516,
2010-09-12, 03:33:04,VALID,917.099,VALID,0,VALID,86.9908,VALID,0,VALID,16.8387,VALID,111,VALID,1.26172,
2010-09-12, 03:34:04,VALID,917.082,VALID,0,VALID,87.0518,VALID,0,VALID,16.8582,VALID,111,VALID,1.31797,
2010-09-12, 03:35:04,VALID,917.094,VALID,0,VALID,86.8002,VALID,0,VALID,16.8764,VALID,111,VALID,1.54883,
2010-09-12, 03:36:04,VALID,917.086,VALID,0,VALID,86.9298,VALID,0,VALID,16.8959,VALID,111,VALID,1.41875,
2010-09-12, 03:37:04,VALID,917.131,VALID,0,VALID,87.25,VALID,0,VALID,16.8959,VALID,111,VALID,1.20234,
2010-09-12, 03:38:04,VALID,917.134,VALID,0,VALID,87.1509,VALID,0,VALID,16.8764,VALID,119,VALID,1.45,
2010-09-12, 03:39:04,VALID,917.173,VALID,0,VALID,87.2881,VALID,0,VALID,16.8569,VALID,119,VALID,1.3582,
2010-09-12, 03:40:04,VALID,917.153,VALID,0,VALID,87.5321,VALID,0,VALID,16.8374,VALID,127,VALID,1.44727,
2010-09-12, 03:41:04,VALID,917.143,VALID,0,VALID,88.0962,VALID,0,VALID,16.779,VALID,138,VALID,1.07266,
2010-09-12, 03:42:04,VALID,917.104,VALID,0,VALID,88.6222,VALID,0,VALID,16.7205,VALID,132,VALID,1.24844,
2010-09-12, 03:43:04,VALID,917.125,VALID,0,VALID,88.8738,VALID,0,VALID,16.7011,VALID,123,VALID,1.26836,
2010-09-12, 03:44:04,VALID,917.102,VALID,0,VALID,89.2092,VALID,0,VALID,16.6828,VALID,116,VALID,1.31953,